Regional Weather Roundup
Issued by NWS Bismarck, ND

Current Version | Previous Version | Text Only | Print | Product List | Glossary On
Versions: 1 2 3 4 5 6 7 8 9 10 11 12 13 14 15 16 17 18 19 20 21 22 23 24 25 26 27 28 29 30 31 32 33 34 35 36 37 38 39 40 41 42 43 44 45 46 47 48 49 50
000 ASUS43 KBIS 050310 RWRBIS NWR BROADCAST TEXT NATIONAL WEATHER SERVICE BISMARCK ND 900 PM CST THU MAR 04 2021 NOTE: "FAIR" INDICATES FEW OR NO CLOUDS BELOW 12,000 FEET WITH NO SIGNIFICANT WEATHER AND/OR OBSTRUCTIONS TO VISIBILITY. CITY SKY/WX TMP DP RH WIND PRES REMARKS WILLISTON CLEAR 37 32 82 E8 30.21R MINOT CLEAR 38 33 82 NE5 30.25R MINOT AFB CLEAR 36 35 99 E5 30.24R BISMARCK CLEAR 42 36 79 NE9 30.23R DICKINSON PTCLDY 39 20 46 E7 30.17R GARRISON N/A 42 37 82 E6 30.23R HETTINGER ARPT PTCLDY 39 20 46 E5 30.18R JAMESTOWN CLEAR 35 31 85 E6 30.24R CARRINGTON FAIR 39 37 93 E7 30.27R HAZEN FAIR 36 34 93 NE5 30.24R MANDAN CLEAR 43 41 93 E9 30.23R OAKES MOCLDY 34 34 100 E10 30.23R RUGBY FAIR 32 32 100 E6 30.26S FOG STANLEY FAIR 36 36 100 NE7 30.24R TIOGA FAIR 34 34 100 E9 30.24S FOG WATFORD CITY FAIR 41 36 81 E14 30.22R $$ CITY SKY/WX TMP DP RH WIND PRES REMARKS GRAND FORKS CLEAR 32 25 75 SE6 30.30R GRAND FORKS AF CLEAR 33 30 91 S7 30.29S DEVILS LAKE N/A N/A N/A N/A MISG N/A FARGO CLEAR 34 29 82 E7 30.29R CANDO FAIR 34 34 100 E6 30.29S FOG CAVALIER MOCLDY 36 28 75 SE3 30.30S GWINNER PTCLDY 34 34 100 E7 30.24S LANGDON FAIR 36 36 100 NE8 30.29R ROLLA FAIR 32 32 100 NE6 30.29R WALHALLA FAIR 30 30 100 NW8 30.32R $$ CITY SKY/WX TMP DP RH WIND PRES REMARKS ABERDEEN PTCLDY 39 34 82 SE6 30.20R MOBRIDGE PTCLDY 44 27 51 SE7 30.15R BUFFALO N/A 47 22 37 SE8 30.13R RAPID CITY CLEAR 39 29 67 W3 30.15R GLASGOW CLEAR 44 23 43 E14 30.14R SIDNEY CLEAR 42 25 50 N8 30.19R WOLF POINT CLEAR 37 20 50 E10 30.18R GLENDIVE PTCLDY 44 19 36 NE10 30.17R MILES CITY PTCLDY 40 26 57 NW7 30.14R BAKER PTCLDY 38 20 48 CALM 30.16R $$ CITY SKY/WX TMP DP RH WIND PRES REMARKS BILLINGS PTCLDY 49 25 39 SE5 30.16R GREAT FALLS CLEAR 40 17 39 SW13 30.12R REGINA CLEAR 34 30 86 SE15 30.21R ESTEVAN CLEAR 32 30 93 E9 30.24R FOG $$

USA.gov is the U.S. government's official web portal to all federal, state and local government web resources and services.